Weather History for KTOP - November, 2014

Change the Weather History Date:

Saturday, November 15, 2014

  Actual Average Record
Temperature  
Mean Temperature 27 °F 44 °F  
Max Temperature 32 °F 55 °F 78 °F (1950)
Min Temperature 22 °F 33 °F 9 °F (1940)
Degree Days  
Heating Degree Days 38 21  
Month to date heating degree days 346 262  
Since 1 July heating degree days 600 618  
Cooling Degree Days 0 0  
Month to date cooling degree days 0 0  
Year to date cooling degree days 1611 1420  
Moisture  
Dew Point 22 °F    
Average Humidity 69    
Maximum Humidity 85    
Minimum Humidity 53    
Precipitation  
Precipitation 0.02 in 0.06 in 4.66 in (1964)
Month to date precipitation 0.06 1.05  
Year to date precipitation 28.50 34.31  
Snow  
Snow 0.20 in 0.00 in 3.00 in (1932)
Month to date snowfall 0.2 0.2  
Year to date snowfall 23.3 11.8  
Since 1 July snowfall 0.2 0.5  
Snow Depth T in    
Sea Level Pressure  
Sea Level Pressure 30.23 in    
Wind  
Wind Speed 6 mph (ESE)    
Max Wind Speed 13 mph    
Max Gust Speed 16 mph    
Visibility 8 miles    
Events Snow    
T = Trace of Precipitation, MM = Missing Value Source: NWS Daily Summary

Daily Weather History Graph

Daily Weather History Graph

Search for Another Location

Airport or City:

Trip Planner

Search our weather history database for the weather conditions in past years. The results will help you decide how hot, cold, wet, or windy it might be!

Date:

Astronomy

Nov. 15, 2014 Rise Set
Actual Time 7:05 AM CST 5:08 PM CST
Civil Twilight 6:36 AM CST 5:36 PM CST
Nautical Twilight 6:04 AM CST 6:09 PM CST
Astronomical Twilight 5:33 AM CST 6:40 PM CST
Moon 12:21 AM CST (11/15) 1:29 PM CST (11/15)
Length of Visible Light 10h 59m
Length of Day
10h 02m
Last Quarter, 40% of the Moon is Illuminated
Nov 15
Last Quarter
Nov 22
New
Nov 29
First Quarter
Dec 6
Full
Dec 14
Last Quarter

Hourly Weather History & Observations

Time (CST) Temp. Windchill Dew Point Humidity Pressure Visibility Wind Dir Wind Speed Gust Speed Precip Events Conditions
12:53 AM 23.0 °F 17.0 °F 12.9 °F 65% 30.34 in 10.0 mi East 4.6 mph - N/A   Clear
1:53 AM 23.0 °F 17.0 °F 12.9 °F 65% 30.32 in 10.0 mi East 4.6 mph - N/A   Clear
2:53 AM 25.0 °F 19.3 °F 15.1 °F 66% 30.30 in 10.0 mi East 4.6 mph - N/A   Clear
3:53 AM 26.1 °F 18.4 °F 15.1 °F 63% 30.28 in 10.0 mi East 6.9 mph - N/A   Clear
4:53 AM 25.0 °F 17.1 °F 15.1 °F 66% 30.27 in 10.0 mi East 6.9 mph - N/A   Clear
5:53 AM 26.1 °F 20.5 °F 16.0 °F 66% 30.27 in 10.0 mi ENE 4.6 mph - N/A   Clear
6:53 AM 27.0 °F 20.5 °F 17.1 °F 66% 30.27 in 10.0 mi East 5.8 mph - N/A   Overcast
7:53 AM 28.0 °F 21.7 °F 17.1 °F 63% 30.27 in 10.0 mi East 5.8 mph - N/A   Overcast
8:53 AM 30.9 °F 22.8 °F 16.0 °F 54% 30.26 in 10.0 mi SE 9.2 mph - N/A   Overcast
9:53 AM 30.9 °F 21.7 °F 16.0 °F 54% 30.27 in 10.0 mi South 11.5 mph - N/A   Overcast
10:06 AM 30.0 °F 24.1 °F 19.9 °F 66% 30.24 in 2.5 mi South 5.8 mph - 0.00 in Snow Light Snow
10:12 AM 30.0 °F 21.7 °F 19.9 °F 66% 30.24 in 3.0 mi South 9.2 mph - 0.00 in Snow Light Snow
10:20 AM 30.0 °F 22.4 °F 21.0 °F 69% 30.24 in 2.5 mi South 8.1 mph - 0.00 in Snow Light Snow
10:32 AM 28.9 °F 20.4 °F 21.9 °F 75% 30.25 in 1.8 mi South 9.2 mph - 0.00 in Snow Light Snow
10:42 AM 28.9 °F 22.8 °F 23.0 °F 78% 30.25 in 2.5 mi South 5.8 mph - 0.00 in Snow Light Snow
10:49 AM 28.4 °F 20.4 °F 23.0 °F 80% 30.24 in 4.0 mi South 8.1 mph - 0.00 in Snow Light Snow
10:53 AM 28.9 °F 23.9 °F 23.0 °F 78% 30.27 in 4.0 mi SSE 4.6 mph - 0.01 in Snow Light Snow
11:01 AM 28.4 °F 21.2 °F 23.0 °F 80% 30.23 in 3.0 mi SE 6.9 mph - N/A Snow Light Snow
11:53 AM 30.0 °F 24.1 °F 24.1 °F 79% 30.22 in 9.0 mi East 5.8 mph - 0.00 in   Overcast
12:53 PM 30.9 °F 23.5 °F 25.0 °F 79% 30.18 in 10.0 mi East 8.1 mph - N/A   Overcast
1:53 PM 32.0 °F 24.8 °F 26.1 °F 79% 30.15 in 10.0 mi East 8.1 mph - N/A   Overcast
2:53 PM 32.0 °F 23.6 °F 25.0 °F 75% 30.14 in 10.0 mi East 10.4 mph - N/A   Overcast
3:53 PM 32.0 °F 25.6 °F 24.1 °F 73% 30.16 in 10.0 mi East 6.9 mph - N/A   Overcast
4:53 PM 32.0 °F 27.5 °F 25.0 °F 75% 30.17 in 8.0 mi ENE 4.6 mph - 0.00 in Snow Light Snow
5:53 PM 30.9 °F - 25.0 °F 79% 30.19 in 10.0 mi Calm Calm - 0.01 in   Overcast
6:11 PM 30.9 °F - 25.0 °F 79% 30.18 in 10.0 mi Calm Calm - N/A   Overcast
6:35 PM 30.9 °F 26.2 °F 24.1 °F 76% 30.18 in 10.0 mi East 4.6 mph - N/A   Overcast
6:53 PM 30.9 °F 27.5 °F 25.0 °F 79% 30.21 in 10.0 mi ENE 3.5 mph - 0.00 in   Overcast
7:53 PM 30.9 °F 26.2 °F 26.1 °F 82% 30.21 in 10.0 mi East 4.6 mph - 0.00 in   Overcast
8:53 PM 30.9 °F 25.2 °F 26.1 °F 82% 30.20 in 10.0 mi ENE 5.8 mph - N/A   Overcast
9:53 PM 30.0 °F 25.2 °F 26.1 °F 85% 30.19 in 10.0 mi East 4.6 mph - N/A   Overcast
10:53 PM 30.9 °F - 27.0 °F 85% 30.21 in 10.0 mi Calm Calm - N/A   Overcast
11:53 PM 30.0 °F - 27.0 °F 88% 30.22 in 10.0 mi Calm Calm - N/A   Overcast